User: anonymous   Login
Location: Oshawa
(43.9000°N, 78.8670°W)
Time: 18:03:05
(UTC-04:00)
Language:

CARTOSAT-1 - Orbit

View from above orbital plane
View from above orbital plane
View from above satellite
View from above satellite

Ground track
Ground track

The orbit data is extracted from the following two-line orbital elements,

1 28649U 05017A   15210.46678823  .00000364  00000-0  50832-4 0  9990
2 28649 097.9334 281.6313 0003435 115.7711 244.3858 14.83411552553874
Epoch (UTC): 29 July 2015 11:12:10
Eccentricity: 0.0003435
inclination: 97.9334°
perigee height: 616 km
apogee height: 621 km
right ascension of ascending node: 281.6313°
argument of perigee: 115.7711°
revolutions per day: 14.83411552
mean anomaly at epoch: 244.3858°
orbit number at epoch: 55387

The dashed part of the orbit path shows where the satellite is in the earth's shadow,  

DLR